Content
SEND FEEDBACK

Daily
Averages
Monthly
Summary
United States of America

BRYAN, OHIO


Home > North America > United States > Ohio
Elevation: 730 feet     Latitude: 41 28N     Longitude: 084 30W

WEATHER
 
SELECT A DAY
Number of Records: 185,365;   Date Range: 1/7/98 - 8/12/14
 
SHARE

PRINT THIS DATA

[ ← Previous Day ]
WEATHER ALMANAC - JANUARY 31, 2013
[ Next Day → ]
[ °C ]   °F
Weather ElementAverageHighLow
Temperature23.2 °F32 °F (12:11 am)15.1 °F (11:53 pm)
Dewpoint15.4 °F24.8 °F (1:17 am)3.9 °F (7:53 pm)
Humidity72.6 %86 % (4:04 am)54 % (6:53 pm)
Barometer29.71 in30.00 in (11:53 pm)29.41 in (12:11 am)
Wind Speed12 mph19.6 mph (7:44 am)
Wind Gust32.2 mph (11:53 am)
Weather ElementAverage
Visibility5.3 mi
Wind DirectionWSW (250.9 °)

Weather ElementTotal
Precipitation0.13 in
Heating Degree Days41.5 (Base 65)
Averaged from 68 records on January 31, 2013
WEATHER CONDITIONS BREAKOUT
WIND DIRECTION BREAKOUT
WEATHER BY HOUR - JANUARY 31, 2013
[ °C ]   °F
Local TimeTemperatureDewpointHumidityBarometerVisibilityWind DirectionWind SpeedGust SpeedPrecipitationEventsConditions
12:11 AM32.0 °F23.0 °F69 %29.41 in10.0 miVariable6.9 mph25.3 mphOvercast
12:53 AM30.9 °F23.0 °F72 %29.45 in9.0 miWSW (250°)11.5 mph27.6 mphOvercast
1:05 AM30.2 °F23.0 °F75 %29.45 in2.0 miWest (270°)9.2 mph25.3 mph0.00 inSnowLight Snow
1:17 AM30.2 °F24.8 °F80 %29.46 in3.0 miWest (260°)10.4 mph20.7 mph0.01 inSnowLight Snow
1:29 AM30.2 °F23.0 °F75 %29.46 in10.0 miWest (270°)15.0 mph28.8 mph0.01 inOvercast
1:37 AM30.2 °F23.0 °F75 %29.47 in10.0 miWest (270°)10.4 mph28.8 mph0.01 inSnowLight Snow
1:53 AM30.9 °F21.9 °F69 %29.48 in9.0 miWest (260°)15.0 mph28.8 mph0.01 inOvercast
2:29 AM28.4 °F21.2 °F74 %29.51 in5.0 miWest (270°)15.0 mph27.6 mph0.00 inSnowLight Snow
2:53 AM28.0 °F19.0 °F69 %29.55 in9.0 miWest (260°)15.0 mph31.1 mph0.00 inOvercast
3:13 AM26.6 °F17.6 °F69 %29.54 in10.0 miWest (260°)16.1 mph31.1 mph0.00 inOvercast
3:44 AM26.6 °F19.4 °F74 %29.56 in2.5 miWest (270°)12.7 mph25.3 mph0.00 inSnowLight Snow
3:46 AM26.6 °F19.4 °F74 %29.56 in1.5 miWest (260°)9.2 mph23.0 mph0.00 inSnowLight Snow
3:53 AM26.1 °F21.0 °F81 %29.58 in0.5 miWest (260°)10.4 mph19.6 mph0.00 inSnowSnow
4:04 AM24.8 °F21.2 °F86 %29.57 in0.5 miWest (260°)8.1 mph17.3 mph0.01 inFog-SnowSnow
4:10 AM24.8 °F21.2 °F86 %29.57 in1.0 miWest (260°)12.7 mph20.7 mph0.01 inSnowLight Snow
4:13 AM24.8 °F21.2 °F86 %29.57 in2.5 miWest (260°)13.8 mph24.2 mph0.01 inSnowLight Snow
4:21 AM24.8 °F19.4 °F80 %29.58 in2.0 miWest (260°)10.4 mph24.2 mph0.01 inSnowLight Snow
4:29 AM24.8 °F19.4 °F80 %29.58 in3.0 miWest (260°)8.1 mph23.0 mph0.01 inSnowLight Snow
4:53 AM25.0 °F18.0 °F75 %29.61 in9.0 miWest (260°)9.2 mph25.3 mph0.01 inOvercast
5:13 AM24.8 °F15.8 °F69 %29.61 in10.0 miVariable6.9 mph24.2 mphOvercast
5:28 AM24.8 °F15.8 °F69 %29.62 in2.0 miWest (260°)11.5 mph21.9 mph0.00 inSnowLight Snow
5:33 AM23.0 °F17.6 °F80 %29.62 in0.8 miWest (270°)10.4 mph21.9 mph0.00 inSnowLight Snow
5:42 AM23.0 °F19.4 °F86 %29.62 in0.5 miWest (260°)11.5 mph18.4 mph0.01 inFog-SnowSnow
5:47 AM23.0 °F19.4 °F86 %29.62 in1.0 miWest (260°)12.7 mph23.0 mph0.01 inSnowLight Snow
5:53 AM23.0 °F17.1 °F78 %29.65 in5.0 miWest (260°)11.5 mph23.0 mph0.01 inSnowLight Snow
6:04 AM23.0 °F15.8 °F74 %29.63 in9.0 miWest (260°)12.7 mph23.0 mph0.00 inOvercast
6:53 AM23.0 °F15.1 °F72 %29.67 in4.0 miWSW (250°)16.1 mph28.8 mph0.00 inSnowLight Snow
7:44 AM21.2 °F15.8 °F80 %29.68 in2.5 miWSW (250°)19.6 mph31.1 mph0.00 inSnowLight Snow
7:53 AM21.0 °F14.0 °F74 %29.71 in2.0 miWSW (240°)12.7 mph31.1 mph0.00 inSnowLight Snow
7:59 AM21.2 °F15.8 °F80 %29.69 in1.8 miWSW (250°)10.4 mph26.5 mph0.00 inSnowLight Snow
8:13 AM19.4 °F15.8 °F86 %29.69 in0.8 miWSW (240°)12.7 mph23.0 mph0.00 inSnowLight Snow
8:25 AM19.4 °F15.8 °F86 %29.70 in1.2 miWSW (250°)12.7 mph25.3 mph0.00 inSnowLight Snow
8:37 AM19.4 °F14.0 °F80 %29.71 in3.0 miWSW (250°)13.8 mph21.9 mph0.00 inSnowLight Snow
8:44 AM19.4 °F14.0 °F80 %29.71 in9.0 miWSW (250°)12.7 mph21.9 mph0.00 inOvercast
8:53 AM19.9 °F12.9 °F74 %29.74 in9.0 miWSW (250°)17.3 mph25.3 mph0.00 inOvercast
9:53 AM21.0 °F9.0 °F60 %29.78 in10.0 miWSW (250°)13.8 mph25.3 mph0.00 inOvercast
10:32 AM19.4 °F12.2 °F74 %29.77 in2.0 miWSW (250°)13.8 mph23.0 mph0.00 inSnowLight Snow
10:38 AM19.4 °F14.0 °F80 %29.77 in1.2 miWSW (240°)15.0 mph23.0 mph0.00 inSnowLight Snow
10:44 AM19.4 °F14.0 °F80 %29.77 in2.5 miWSW (250°)11.5 mph23.0 mph0.00 inSnowLight Snow
10:51 AM21.2 °F12.2 °F68 %29.78 in7.0 miWSW (250°)16.1 mph25.3 mph0.00 inOvercast
10:53 AM21.0 °F12.9 °F71 %29.81 in9.0 miWSW (250°)17.3 mph26.5 mph0.00 inOvercast
11:31 AM21.2 °F10.4 °F63 %29.79 in10.0 miWest (260°)12.7 mph21.9 mphOvercast
11:53 AM23.0 °F10.0 °F58 %29.81 in10.0 miWest (260°)13.8 mph32.2 mphOvercast
12:53 PM24.1 °F12.0 °F60 %29.81 in10.0 miWest (260°)11.5 mph25.3 mphOvercast
1:04 PM23.0 °F14.0 °F68 %29.78 in4.0 miWest (260°)12.7 mph27.6 mph0.00 inSnowLight Snow
1:08 PM23.0 °F14.0 °F68 %29.79 in2.0 miWest (260°)10.4 mph27.6 mph0.00 inSnowLight Snow
1:15 PM23.0 °F15.8 °F74 %29.78 in2.0 miWSW (250°)15.0 mph23.0 mph0.00 inSnowLight Snow
1:17 PM23.0 °F14.0 °F68 %29.78 in3.0 miWSW (250°)10.4 mph23.0 mph0.00 inSnowLight Snow
1:53 PM24.1 °F14.0 °F65 %29.81 in5.0 miWSW (250°)11.5 mph18.4 mph0.00 inSnowLight Snow
2:00 PM24.8 °F15.8 °F69 %29.78 in2.5 miWSW (250°)13.8 mph20.7 mph0.00 inSnowLight Snow
2:09 PM23.0 °F15.8 °F74 %29.79 in1.8 miWest (260°)15.0 mph23.0 mph0.00 inSnowLight Snow
2:20 PM21.2 °F15.8 °F80 %29.79 in0.5 miWest (260°)15.0 mph21.9 mph0.00 inSnowSnow
2:37 PM24.8 °F15.8 °F69 %29.79 in2.0 miWSW (250°)9.2 mph23.0 mph0.00 inSnowLight Snow
2:53 PM25.0 °F14.0 °F63 %29.82 in10.0 miWest (260°)12.7 mph25.3 mph0.00 inOvercast
3:01 PM24.8 °F14.0 °F64 %29.79 in10.0 miWest (260°)10.4 mph21.9 mphOvercast
3:13 PM23.0 °F15.8 °F74 %29.80 in2.0 miWest (280°)9.2 mph20.7 mph0.00 inSnowLight Snow
3:18 PM21.2 °F15.8 °F80 %29.80 in0.8 miWest (270°)10.4 mph20.7 mph0.00 inSnowLight Snow
3:44 PM21.2 °F15.8 °F80 %29.81 in1.2 miWest (260°)11.5 mph26.5 mph0.00 inSnowLight Snow
3:53 PM21.9 °F12.9 °F68 %29.85 in4.0 miWest (260°)10.4 mph26.5 mph0.00 inSnowLight Snow
4:06 PM21.2 °F12.2 °F68 %29.82 in9.0 miWest (270°)9.2 mph23.0 mph0.00 inOvercast
4:53 PM21.9 °F10.0 °F60 %29.86 in10.0 miWest (270°)9.2 mph20.7 mph0.00 inOvercast
5:53 PM19.9 °F8.1 °F60 %29.88 in10.0 miWest (270°)12.7 mph19.6 mphOvercast
6:53 PM19.0 °F5.0 °F54 %29.91 in10.0 miWest (270°)11.5 mph20.7 mphOvercast
7:53 PM18.0 °F3.9 °F54 %29.94 in10.0 miWest (260°)10.4 mph19.6 mphMostly Cloudy
8:53 PM17.1 °F5.0 °F59 %29.96 in10.0 miWest (260°)11.5 mph19.6 mphMostly Cloudy
9:53 PM16.0 °F7.0 °F68 %29.97 in9.0 miWSW (250°)6.9 mph19.6 mph0.00 inSnowLight Snow
10:43 PM15.8 °F6.8 °F68 %29.94 in10.0 miWest (260°)9.2 mph0.00 inMostly Cloudy
11:53 PM15.1 °F5.0 °F64 %30.00 in10.0 miWest (280°)8.1 mph19.6 mphOvercast
Hourly data recorded from KDFI, located miles away from Bryan, Ohio







STORIES FROM OUR PARTNERS